Weather Roundup
Issued by NWS

Home | Current Version | Previous Version | Graphics & Text | Print | Product List | Glossary Off
Versions: 1 2 3 4 5 6 7 8 9 10 11 12 13 14 15 16 17 18 19 20 21 22 23 24 25 26 27 28 29 30 31 32 33 34 35 36 37 38 39 40 41 42 43 44 45 46 47 48 49 50

000
NZUS93 KARX 211410
HRRWXR

CURRENT HOURLY OBSERVATIONS ACROSS
MUCH OF THE UPPER MISSISSIPPI VALLEY
NATIONAL WEATHER SERVICE LA CROSSE WI
800 AM CST TUE NOV 21 2017


...SOUTHEAST MINNESOTA...


CITY           SKY/WX    TMP DP  RH WIND       PRES   REMARKS
ROCHESTER      CLOUDY    25  16  68 NW24G35   29.84R WCI   9
ROCHESTER/MAYO CLOUDY    26  16  64 W29G40    29.83R WCI  10
WINONA         CLOUDY    30  18  59 NW23G31   29.84R WCI  17
AUSTIN         CLOUDY    25  14  63 NW18G36   29.89R WCI  11
ALBERT LEA     CLOUDY    23  12  63 NW16G29   29.92R WCI  10
DODGE CENTER   CLOUDY    25  16  68 W22G31    29.86R WCI  10
PRESTON        CLOUDY    25  15  66 NW20G31   29.84R WCI  11
OWATONNA       CLOUDY    25  16  68 W22G30    29.90R WCI  10
FARIBAULT      CLOUDY    25  16  68 W18G30    29.91R WCI  11
$$

...ELSEWHERE IN MINNESOTA...


CITY           SKY/WX    TMP DP  RH WIND       PRES   REMARKS
MINNEAPOLIS    MOCLDY    24  11  57 NW29G36   29.90R WCI   7
INTNL FALLS      N/A     14   6  70 NW15      29.89R WCI  -1
DULUTH         LGT SNOW  19  12  74 NW16G24   29.77R WCI   4
RED WING       CLOUDY    28  12  50 NW16G26   29.85R WCI  17
REDWOOD FALLS  CLOUDY    21   9  59 NW26G36   30.02R WCI   4
MANKATO        FLURRIES  23  15  71 NW26G32   29.95R WCI   6
WORTHINGTON    PTCLDY    19  10  68 NW24G31   30.05R WCI   2
FAIRMONT       MOCLDY    22  12  65 NW29G36   29.99R WCI   4
$$

...SOUTHWEST WISCONSIN...


CITY           SKY/WX    TMP DP  RH WIND       PRES   REMARKS
LA CROSSE      CLOUDY    31  15  52 NW24G38   29.81R WCI  17
PRAIRIE DU CHI CLOUDY    33  15  48 W17G31    29.83R WCI  22
BOSCOBEL       PTCLDY    35  13  40 W14G20    29.80R WCI  26
LONE ROCK      CLOUDY    37  14  38 NW23G30   29.75R WCI  26
PLATTEVILLE    CLOUDY    35  17  48 W21G30    29.77R WCI  24
FORT MC COY    CLOUDY    30  15  54 NW22G37   29.80R WCI  16
CAMP DOUGLAS   MOCLDY    34  16  47 W17G28    29.74R WCI  23
MAUSTON-NEW LI SUNNY     33  18  54 NW17G24   29.72R WCI  21
VIROQUA        PTSUNNY   29  20  67 NW16G25   29.76R WCI  18
WIS DELLS      MOCLDY    35  13  41 W15       29.70R WCI  25
$$

...ELSEWHERE IN WISCONSIN...


CITY           SKY/WX    TMP DP  RH WIND       PRES   REMARKS
MILWAUKEE      CLOUDY    45  31  58 W10       29.64R
MADISON        CLOUDY    40  17  39 NW9       29.68R WCI  34
GREEN BAY      PTCLDY    37  25  61 W17G26    29.60R WCI  27
EAU CLAIRE     CLOUDY    27  11  51 NW22      29.80R WCI  13
BLACK RVR FLS  PTSUNNY   28  11  49 NW15G25   29.78R WCI  16
MEDFORD        CLOUDY    26  15  62 W20G25    29.67R WCI  13
WAUSAU         CLOUDY    30  20  66 NW20G29   29.63R WCI  17
WIS RAPIDS     CLEAR     30  16  56 NW18G31   29.71R WCI  18
MARSHFIELD     CLOUDY    28  15  58 NW25G33   29.69R WCI  13
RICE LAKE      CLOUDY    26  13  59 NW10G30   29.81R WCI  16
$$

...NORTHEAST IOWA...


CITY           SKY/WX    TMP DP  RH WIND       PRES   REMARKS
WATERLOO       CLOUDY    32  16  51 NW24G37   29.88R WCI  19
DUBUQUE        CLOUDY    35  16  45 NW17G29   29.80R WCI  25
DECORAH        CLOUDY    28  14  54 NW17G46   29.83R WCI  16
MASON CITY     CLOUDY    24  13  62 NW29G38   29.94R WCI   7
CHARLES CITY   CLOUDY    28  18  64 NW24G36   29.89R WCI  14
OELWEIN        CLOUDY    32  19  59 NW24      29.86R WCI  19
$$

...ELSEWHERE IN IOWA...


CITY           SKY/WX    TMP DP  RH WIND       PRES   REMARKS
DES MOINES     MOCLDY    40  22  48 NW16G26   29.94R WCI  31
IOWA CITY      LGT RAIN  39  24  55 NW16G24   29.89R WCI  30
FORT DODGE     CLOUDY    32  17  54 N17G25    29.96R WCI  21
MARSHALLTOWN   CLOUDY    37  20  50 NW26G35   29.89R WCI  25
CEDAR RAPIDS   CLOUDY    38  18  44 NW21G30   29.86R WCI  28
$$

...NORTHERN ILLINOIS...


CITY           SKY/WX    TMP DP  RH WIND       PRES   REMARKS
CHICAGO-OHARE  CLOUDY    43  32  65 SW15      29.71R
CHICAGO-MIDWAY PTSUNNY   44  33  65 SW14      29.73R
MOLINE         CLOUDY    44  27  51 NW17G25   29.82R
ROCKFORD       LGT RAIN  43  28  55 W13       29.75R
PEORIA         CLOUDY    39  33  79 W5        29.82R
$$

NOTE: "FAIR" INDICATES FEW OR NO CLOUDS BELOW 12,000 FEET WITH NO
SIGNIFICANT WEATHER AND/OR OBSTRUCTIONS TO VISIBILITY. WIND
SPEEDS ARE IN MILES-PER-HOUR.




USA.gov is the U.S. government's official web portal to all federal, state and local government web resources and services.